Weather History for KIDP - November, 2012

Change the Weather History Date:

Monday, November 26, 2012

  Actual Average (KCFV) Record (KCFV)
Temperature  
Mean Temperature 37 °F -  
Max Temperature 46 °F 53 °F 70 °F (1998)
Min Temperature 28 °F 32 °F 21 °F (1996)
Degree Days  
Heating Degree Days 28    
Moisture  
Dew Point 29 °F    
Average Humidity 74    
Maximum Humidity 93    
Minimum Humidity 43    
Precipitation  
Precipitation 0.00 in - - ()
Sea Level Pressure  
Sea Level Pressure 30.16 in    
Wind  
Wind Speed 13 mph (NNE)    
Max Wind Speed 26 mph    
Max Gust Speed 38 mph    
Visibility 10 miles    
Events      
Averages and records for this station are not official NWS values.
T = Trace of Precipitation, MM = Missing Value Source: NWS Daily Summary

Daily Weather History Graph

Daily Weather History Graph

Search for Another Location

Airport or City:

Trip Planner

Search our weather history database for the weather conditions in past years. The results will help you decide how hot, cold, wet, or windy it might be!

Date:

Astronomy

Nov. 26, 2012 Rise Set
Actual Time 7:13 AM CST 5:07 PM CST
Civil Twilight 6:45 AM CST 5:35 PM CST
Nautical Twilight 6:13 AM CST 6:07 PM CST
Astronomical Twilight 5:42 AM CST 6:38 PM CST
Moon 3:59 PM CST (11/26) 5:26 AM CST (11/26)
Length of Visible Light 10h 50m
Length of Day
9h 53m
Waxing Gibbous, 97% of the Moon is Illuminated
Nov 26
Waxing Gibbous
Nov 28
Full
Dec 6
Last Quarter
Dec 13
New
Dec 19
First Quarter

Hourly Weather History & Observations

Time (CST) Temp. Windchill Dew Point Humidity Pressure Visibility Wind Dir Wind Speed Gust Speed Precip Events Conditions
12:15 AM 35.6 °F 28.6 °F 32.0 °F 87% 29.95 in 10.0 mi NNE 9.2 mph - N/A   Clear
12:35 AM 37.4 °F 30.8 °F 32.0 °F 81% 29.95 in 10.0 mi NE 9.2 mph - N/A   Clear
12:55 AM 37.4 °F 30.8 °F 32.0 °F 81% 29.95 in 10.0 mi NNE 9.2 mph - N/A   Clear
1:15 AM 39.2 °F 32.5 °F 32.0 °F 75% 29.94 in 10.0 mi NNE 10.4 mph - N/A   Clear
1:35 AM 39.2 °F 33.0 °F 32.0 °F 75% 29.94 in 10.0 mi NNE 9.2 mph - N/A   Clear
1:55 AM 37.4 °F 30.3 °F 32.0 °F 81% 29.94 in 10.0 mi NNE 10.4 mph - N/A   Clear
2:15 AM 37.4 °F 30.3 °F 32.0 °F 81% 29.94 in 10.0 mi NNE 10.4 mph - N/A   Clear
2:35 AM 35.6 °F 28.6 °F 32.0 °F 87% 29.95 in 10.0 mi North 9.2 mph - N/A   Clear
2:55 AM 35.6 °F 28.0 °F 32.0 °F 87% 29.96 in 10.0 mi North 10.4 mph - N/A   Clear
3:15 AM 35.6 °F 27.5 °F 32.0 °F 87% 29.96 in 10.0 mi NNE 11.5 mph - N/A   Clear
3:35 AM 35.6 °F 28.0 °F 32.0 °F 87% 29.96 in 10.0 mi NNE 10.4 mph - N/A   Clear
3:55 AM 35.6 °F 27.5 °F 32.0 °F 87% 29.96 in 10.0 mi NNE 11.5 mph - N/A   Clear
4:15 AM 35.6 °F 28.0 °F 32.0 °F 87% 29.96 in 10.0 mi NNE 10.4 mph - N/A   Clear
4:35 AM 35.6 °F 28.6 °F 32.0 °F 87% 29.96 in 10.0 mi NNE 9.2 mph - N/A   Clear
4:55 AM 33.8 °F 26.4 °F 32.0 °F 93% 29.97 in 10.0 mi NNE 9.2 mph - N/A   Clear
5:15 AM 33.8 °F 25.8 °F 32.0 °F 93% 29.97 in 10.0 mi North 10.4 mph - N/A   Clear
5:35 AM 33.8 °F 25.8 °F 32.0 °F 93% 29.97 in 10.0 mi NNE 10.4 mph - N/A   Clear
5:55 AM 33.8 °F 25.3 °F 32.0 °F 93% 29.98 in 10.0 mi NNE 11.5 mph - N/A   Clear
6:15 AM 33.8 °F 24.8 °F 32.0 °F 93% 29.99 in 10.0 mi NNE 12.7 mph - N/A   Clear
6:35 AM 33.8 °F 26.4 °F 32.0 °F 93% 30.00 in 10.0 mi NNE 9.2 mph - N/A   Clear
6:55 AM 33.8 °F 30.8 °F 32.0 °F 93% 30.01 in 10.0 mi NNE 3.5 mph - N/A   Mostly Cloudy
7:15 AM 33.8 °F 27.7 °F 32.0 °F 93% 30.03 in 10.0 mi NNE 6.9 mph - N/A   Mostly Cloudy
7:35 AM 33.8 °F 25.3 °F 32.0 °F 93% 30.04 in 10.0 mi NNE 11.5 mph - N/A   Mostly Cloudy
7:55 AM 33.8 °F 24.8 °F 30.2 °F 87% 30.06 in 10.0 mi NNE 12.7 mph - N/A   Scattered Clouds
8:15 AM 35.6 °F 26.6 °F 32.0 °F 87% 30.06 in 10.0 mi NNE 13.8 mph 17.3 mph N/A   Mostly Cloudy
8:35 AM 35.6 °F 25.5 °F 30.2 °F 81% 30.07 in 10.0 mi NNE 17.3 mph 23.0 mph N/A   Scattered Clouds
8:55 AM 35.6 °F 25.2 °F 30.2 °F 81% 30.08 in 10.0 mi NNE 18.4 mph 21.9 mph N/A   Scattered Clouds
9:15 AM 37.4 °F 27.5 °F 32.0 °F 81% 30.10 in 10.0 mi NNE 18.4 mph 26.5 mph N/A   Overcast
9:35 AM 37.4 °F 27.2 °F 30.2 °F 75% 30.10 in 10.0 mi NNE 19.6 mph - N/A   Overcast
9:55 AM 37.4 °F 27.8 °F 30.2 °F 75% 30.11 in 10.0 mi NE 17.3 mph 24.2 mph N/A   Overcast
10:15 AM 39.2 °F 30.2 °F 30.2 °F 70% 30.12 in 10.0 mi NE 17.3 mph 21.9 mph N/A   Overcast
10:35 AM 39.2 °F 30.8 °F 32.0 °F 75% 30.13 in 10.0 mi NNE 15.0 mph - N/A   Overcast
10:55 AM 41.0 °F 32.2 °F 32.0 °F 70% 30.13 in 10.0 mi North 18.4 mph 24.2 mph N/A   Overcast
11:15 AM 41.0 °F 31.6 °F 30.2 °F 65% 30.14 in 10.0 mi NNE 20.7 mph 26.5 mph N/A   Overcast
11:35 AM 41.0 °F 32.2 °F 30.2 °F 65% 30.15 in 10.0 mi NNE 18.4 mph 23.0 mph N/A   Overcast
11:55 AM 42.8 °F 34.0 °F 32.0 °F 66% 30.14 in 10.0 mi NNE 20.7 mph 25.3 mph N/A   Overcast
12:15 PM 44.6 °F 35.7 °F 32.0 °F 61% 30.14 in 10.0 mi NNE 24.2 mph 29.9 mph N/A   Mostly Cloudy
12:35 PM 46.4 °F 37.7 °F 32.0 °F 57% 30.15 in 10.0 mi North 26.5 mph 33.4 mph N/A   Mostly Cloudy
12:55 PM 44.6 °F 36.9 °F 32.0 °F 61% 30.15 in 10.0 mi NNE 18.4 mph - N/A   Overcast
1:15 PM 46.4 °F 38.7 °F 30.2 °F 53% 30.15 in 10.0 mi NNE 20.7 mph 31.1 mph N/A   Overcast
1:35 PM 44.6 °F 35.5 °F 30.2 °F 57% 30.15 in 10.0 mi NNE 25.3 mph 34.5 mph N/A   Overcast
1:55 PM 44.6 °F 36.1 °F 30.2 °F 57% 30.17 in 10.0 mi North 21.9 mph 27.6 mph N/A   Overcast
2:15 PM 46.4 °F 38.3 °F 24.8 °F 43% 30.17 in 10.0 mi NNE 23.0 mph 31.1 mph N/A   Overcast
2:35 PM 44.6 °F 35.7 °F 24.8 °F 46% 30.17 in 10.0 mi NNE 24.2 mph 34.5 mph N/A   Overcast
2:55 PM 44.6 °F 35.3 °F 23.0 °F 43% 30.19 in 10.0 mi NNE 26.5 mph 32.2 mph N/A   Overcast
3:15 PM 44.6 °F 35.5 °F 23.0 °F 43% 30.20 in 10.0 mi NNE 25.3 mph 29.9 mph N/A   Scattered Clouds
3:35 PM 44.6 °F 35.9 °F 23.0 °F 43% 30.21 in 10.0 mi NNE 23.0 mph 38.0 mph N/A   Mostly Cloudy
3:55 PM 44.6 °F 36.6 °F 24.8 °F 46% 30.23 in 10.0 mi NNE 19.6 mph 27.6 mph N/A   Mostly Cloudy
4:15 PM 44.6 °F 36.1 °F 24.8 °F 46% 30.24 in 10.0 mi NNE 21.9 mph 29.9 mph N/A   Scattered Clouds
4:35 PM 44.6 °F 36.4 °F 24.8 °F 46% 30.25 in 10.0 mi NNE 20.7 mph 29.9 mph N/A   Clear
4:55 PM 42.8 °F 34.3 °F 24.8 °F 49% 30.27 in 10.0 mi NNE 19.6 mph 32.2 mph N/A   Clear
5:15 PM 41.0 °F 32.2 °F 24.8 °F 53% 30.28 in 10.0 mi NNE 18.4 mph 23.0 mph N/A   Clear
5:35 PM 41.0 °F 31.4 °F 26.6 °F 57% 30.29 in 10.0 mi NNE 21.9 mph - N/A   Clear
5:55 PM 39.2 °F 30.2 °F 26.6 °F 61% 30.30 in 10.0 mi NNE 17.3 mph 21.9 mph N/A   Clear
6:15 PM 39.2 °F 30.5 °F 26.6 °F 61% 30.32 in 10.0 mi NNE 16.1 mph - N/A   Clear
6:35 PM 37.4 °F 29.3 °F 26.6 °F 65% 30.33 in 10.0 mi NNE 12.7 mph - N/A   Clear
6:55 PM 37.4 °F 29.8 °F 26.6 °F 65% 30.34 in 10.0 mi North 11.5 mph - N/A   Clear
7:15 PM 37.4 °F 28.9 °F 26.6 °F 65% 30.35 in 10.0 mi NNE 13.8 mph - N/A   Clear
7:35 PM 35.6 °F 27.5 °F 26.6 °F 70% 30.36 in 10.0 mi North 11.5 mph - N/A   Clear
7:55 PM 33.8 °F 25.3 °F 26.6 °F 75% 30.37 in 10.0 mi North 11.5 mph - N/A   Clear
8:15 PM 35.6 °F 26.6 °F 28.4 °F 75% 30.38 in 10.0 mi North 13.8 mph - N/A   Clear
8:35 PM 33.8 °F 24.3 °F 28.4 °F 81% 30.40 in 10.0 mi North 13.8 mph - N/A   Clear
8:55 PM 33.8 °F 23.2 °F 28.4 °F 81% 30.40 in 10.0 mi North 17.3 mph - N/A   Clear
9:15 PM 33.8 °F 24.3 °F 28.4 °F 81% 30.41 in 10.0 mi North 13.8 mph - N/A   Clear
9:35 PM 32.0 °F 23.0 °F 28.4 °F 87% 30.42 in 10.0 mi North 11.5 mph - N/A   Clear
9:55 PM 32.0 °F 23.0 °F 28.4 °F 87% 30.43 in 10.0 mi North 11.5 mph - N/A   Clear
10:15 PM 32.0 °F 23.0 °F 28.4 °F 87% 30.44 in 10.0 mi North 11.5 mph - N/A   Clear
10:35 PM 32.0 °F 24.2 °F 28.4 °F 87% 30.44 in 10.0 mi NNE 9.2 mph - N/A   Clear
10:55 PM 30.2 °F 22.6 °F 26.6 °F 86% 30.44 in 10.0 mi NNE 8.1 mph - N/A   Clear
11:15 PM 30.2 °F 22.6 °F 26.6 °F 86% 30.44 in 10.0 mi North 8.1 mph - N/A   Clear
11:35 PM 28.4 °F 23.3 °F 26.6 °F 93% 30.45 in 10.0 mi North 4.6 mph - N/A   Clear
11:55 PM 28.4 °F 21.2 °F 26.6 °F 93% 30.45 in 10.0 mi North 6.9 mph - N/A   Clear